This is the latest recevied weather packets stored in our database for station/object HI3RRR-14. If no packets are shown the sender has not sent any weather packets the latest 10 day(s).
| Time | Temp. | Humidity | Pressure | Rain* | Wind** | Luminosity | Snow |
|---|---|---|---|---|---|---|---|
| 1788616441 | 27.22° C | 70% | 1015 hPa | 0 mm | - | - | - |
| 1788615840 | 27.22° C | 71% | 1015 hPa | 0 mm | - | - | - |
| 1788615240 | 27.22° C | 71% | 1015 hPa | 0 mm | - | - | - |
| 1788614639 | 26.11° C | 76% | 1015 hPa | 0 mm | - | - | - |
| 1788614038 | 26.11° C | 81% | 1015 hPa | 0 mm | - | - | - |
| 1788613438 | 26.11° C | 81% | 1015 hPa | 0 mm | - | - | - |
| 1788612837 | 25.56° C | 80% | 1015 hPa | 0 mm | - | - | - |
| 1788612236 | 25.56° C | 83% | 1015 hPa | 0 mm | - | - | - |
| 1788611635 | 25.56° C | 83% | 1015 hPa | 0 mm | - | - | - |
| 1788611034 | 23.89° C | 85% | 1015 hPa | 0 mm | - | - | - |
| 1788610433 | 23.89° C | 87% | 1015 hPa | 0 mm | - | - | - |
| 1788609832 | 23.89° C | 87% | 1015 hPa | 0 mm | - | - | - |
| 1788609231 | 23.89° C | 87% | 1015 hPa | 0 mm | - | - | - |
| 1788608631 | 23.33° C | 87% | 1015 hPa | 0 mm | - | - | - |
| 1788608030 | 23.33° C | 87% | 1015 hPa | 0 mm | - | - | - |
| 1788607429 | 21.67° C | 91% | 1015 hPa | 0 mm | - | - | - |
| 1788606828 | 21.67° C | 91% | 1015 hPa | 0 mm | - | - | - |
| 1788606227 | 21.67° C | 91% | 1015 hPa | 0 mm | - | - | - |
| 1788605626 | 21.67° C | 91% | 1015 hPa | 0 mm | - | - | - |
| 1788605025 | 21.11° C | 91% | 1015 hPa | 0 mm | - | - | - |
| 1788604424 | 21.11° C | 91% | 1015 hPa | 0 mm | - | - | - |
| 1788603823 | 21.11° C | 91% | 1014 hPa | 0 mm | - | - | - |
| 1788603222 | 21.11° C | 90% | 1014 hPa | 0 mm | - | - | - |
| 1788602621 | 21.11° C | 90% | 1014 hPa | 0 mm | - | - | - |
| 1788602020 | 21.11° C | 91% | 1015 hPa | 0 mm | - | - | - |
* Rain latest hour (hover to see other rain measurements)
** Current wind speed in m/s (hover to see current wind gust speed)